TimeEST,TemperatureF,Dew PointF,Humidity,Sea Level PressureIn,VisibilityMPH,Wind Direction,Wind SpeedMPH,Gust SpeedMPH,PrecipitationIn,Events,Conditions,WindDirDegrees,DateUTC
12:56 AM,34.0,32.0,92,30.38,10.0,North,3.5,-,N/A,,Clear,10,2012-11-17 05:56:00
1:56 AM,34.0,32.0,92,30.39,10.0,North,4.6,-,N/A,,Clear,360,2012-11-17 06:56:00
2:56 AM,36.0,33.1,89,30.39,10.0,North,4.6,-,N/A,,Clear,360,2012-11-17 07:56:00
3:56 AM,37.0,33.1,86,30.40,10.0,NNE,5.8,-,N/A,,Clear,20,2012-11-17 08:56:00
4:56 AM,37.0,32.0,82,30.40,10.0,NNE,6.9,-,N/A,,Clear,20,2012-11-17 09:56:00
5:56 AM,37.0,32.0,82,30.41,10.0,NNE,8.1,-,N/A,,Clear,20,2012-11-17 10:56:00
6:56 AM,37.0,30.9,79,30.43,10.0,NNE,6.9,-,N/A,,Clear,20,2012-11-17 11:56:00
7:56 AM,39.9,32.0,73,30.45,10.0,NNE,8.1,-,N/A,,Clear,20,2012-11-17 12:56:00
8:56 AM,45.0,32.0,60,30.46,10.0,NNE,10.4,-,N/A,,Clear,30,2012-11-17 13:56:00
9:56 AM,48.9,28.9,46,30.47,10.0,ENE,13.8,23.0,N/A,,Clear,60,2012-11-17 14:56:00
10:56 AM,52.0,28.0,40,30.46,10.0,NE,9.2,21.9,0.00,,Clear,40,2012-11-17 15:56:00
12:56 PM,57.0,26.1,30,30.40,10.0,NE,11.5,17.3,0.00,,Clear,50,2012-11-17 17:56:00
1:56 PM,59.0,26.1,28,30.38,10.0,NE,9.2,-,N/A,,Clear,40,2012-11-17 18:56:00
2:56 PM,59.0,24.1,26,30.37,10.0,NE,9.2,18.4,0.00,Rain,Light Rain,50,2012-11-17 19:56:00
3:56 PM,59.0,24.1,26,30.37,10.0,NNE,9.2,-,0.00,,Clear,20,2012-11-17 20:56:00
4:56 PM,57.0,25.0,29,30.39,10.0,ENE,4.6,-,N/A,,Clear,60,2012-11-17 21:56:00
5:56 PM,52.0,26.1,37,30.40,10.0,NE,4.6,-,N/A,,Clear,50,2012-11-17 22:56:00
6:56 PM,50.0,27.0,41,30.41,10.0,NE,5.8,-,N/A,,Clear,40,2012-11-17 23:56:00
7:56 PM,50.0,26.1,39,30.42,10.0,NNE,5.8,-,N/A,,Mostly Cloudy,30,2012-11-18 00:56:00
8:56 PM,51.1,26.1,38,30.43,10.0,NNE,6.9,-,N/A,,Overcast,30,2012-11-18 01:56:00
9:56 PM,52.0,25.0,35,30.43,10.0,NE,9.2,-,N/A,,Overcast,40,2012-11-18 02:56:00
10:56 PM,51.1,25.0,36,30.42,10.0,NE,8.1,-,N/A,,Overcast,40,2012-11-18 03:56:00
11:56 PM,51.1,25.0,36,30.42,10.0,NE,8.1,17.3,N/A,,Overcast,40,2012-11-18 04:56:00